Theta_e
309 309 309 310 309 310 310 310 311 311 311 312 313 313 313 313 313 313 313 314 315 313 313 313 314 314 313 313 316 317 316 316 314 314 315 314 314 315 315 316 316 315 314 315 315 313 312 312 312 311 311 311 311 311 310 310 310 310 310 309 310 309 310 311 311 311 312 313 314 315 315 318 320 321 322 322 323 322 322 321 322 322 322 322 322 321 321
310 310 310 310 310 310 310 310 311 310 311 311 312 312 312 312 313 313 314 315 315 313 313 313 313 313 313 313 314 314 313 314 313 313 314 314 314 314 314 314 315 314 314 314 313 312 312 311 311 311 311 311 311 310 310 310 309 309 309 309 309 309 309 310 310 309 309 310 311 311 312 314 316 318 320 321 322 321 320 321 322 322 322 322 322 321 321
311 310 310 310 310 310 310 310 310 310 311 311 312 312 313 313 314 313 314 316 315 312 312 312 313 313 313 313 313 313 312 313 312 313 313 314 314 313 313 313 313 313 313 313 312 312 311 311 310 310 309 310 310 309 309 309 308 308 309 309 309 309 309 309 309 309 309 309 309 310 310 310 311 312 314 317 319 320 320 320 321 321 321 321 321 321 321
312 310 310 310 309 310 310 310 311 311 312 312 312 313 313 314 314 314 315 314 313 312 311 312 311 311 312 311 312 312 312 312 312 312 312 313 314 313 313 313 313 312 312 312 312 311 311 310 310 309 308 309 310 309 308 308 308 308 308 309 309 309 309 309 309 309 309 309 309 309 309 310 310 310 311 312 314 316 318 319 319 320 321 321 321 322 322
311 310 310 310 310 310 311 311 311 311 311 311 312 312 312 313 314 314 313 312 311 311 311 311 311 311 311 311 311 311 312 311 311 312 312 312 312 313 313 312 312 312 311 311 311 311 310 310 310 309 308 309 310 309 308 308 308 308 308 308 308 308 308 308 308 309 308 308 309 309 309 310 310 310 311 311 312 312 314 315 317 318 320 320 320 321 321
310 310 310 310 311 311 311 311 310 310 310 310 311 312 312 311 311 312 311 310 310 311 311 311 311 311 311 311 311 311 311 311 311 311 311 312 312 312 312 311 311 311 311 311 310 310 309 309 309 308 308 309 309 309 308 308 308 308 308 308 308 308 308 308 308 308 308 309 309 309 309 309 310 310 310 311 311 312 312 313 314 315 317 318 318 319 319
309 309 309 310 311 311 310 309 310 310 309 309 310 310 309 309 309 310 310 309 310 310 309 310 310 309 309 309 309 309 310 310 311 311 311 313 314 312 311 312 312 311 310 310 310 310 309 308 307 307 308 309 309 308 308 308 308 308 308 308 308 308 308 309 309 308 309 309 309 310 310 309 309 310 310 310 310 311 312 312 312 313 314 315 316 317 318
309 309 309 310 310 309 308 309 310 310 309 309 309 308 308 308 309 309 309 309 308 309 309 308 308 309 308 308 309 308 309 309 310 309 310 311 312 311 310 312 312 310 309 309 309 309 309 308 308 308 308 308 308 308 308 308 308 308 308 307 308 307 308 308 308 308 308 309 310 310 310 310 310 310 310 310 311 311 312 312 312 312 313 313 314 315 316
308 308 308 309 309 308 309 310 310 310 310 309 309 308 308 308 308 308 308 308 308 308 308 307 308 308 307 308 309 308 308 308 308 308 309 310 310 310 309 310 309 308 308 308 308 308 308 307 307 307 307 307 308 308 307 307 308 308 307 307 307 307 307 307 307 307 307 308 309 309 310 310 310 310 310 310 311 311 311 312 313 313 312 312 313 314 314
307 307 307 308 308 308 309 310 309 309 309 309 309 307 307 308 307 306 307 307 307 307 307 307 307 307 307 308 309 307 306 307 307 306 307 308 309 308 308 308 308 307 308 307 307 307 307 306 306 306 307 307 307 307 306 307 307 307 307 307 307 307 307 307 307 307 307 308 308 308 309 309 309 310 310 310 311 311 311 312 312 313 313 313 313 313 314
307 307 307 307 307 308 309 309 308 307 308 308 307 306 306 306 306 305 305 305 305 306 306 306 306 306 306 307 307 306 305 306 306 305 306 307 307 307 306 306 306 306 306 306 307 306 305 305 306 307 307 307 307 306 306 306 307 307 307 307 307 307 307 307 307 307 307 307 307 308 309 309 309 310 310 310 311 311 311 312 312 312 313 312 312 313 313
307 307 307 306 307 308 309 307 306 306 306 307 306 306 306 305 305 305 305 305 305 305 305 305 306 305 305 306 306 305 305 305 305 305 305 305 305 305 305 305 305 305 304 305 305 305 304 305 305 306 306 306 306 306 306 307 307 307 307 307 307 307 307 307 307 307 307 307 308 308 308 309 310 310 310 311 311 311 311 312 312 312 313 312 311 310 310
306 306 306 305 307 307 307 306 305 305 305 306 306 305 304 304 304 304 304 304 304 304 304 304 304 305 305 304 304 304 305 305 305 305 305 305 305 305 304 304 304 303 304 304 304 304 304 304 304 304 305 305 306 306 306 306 307 307 307 307 307 307 307 307 307 307 307 307 307 308 308 309 310 310 310 311 311 311 311 311 311 312 312 311 309 307 306
305 305 305 305 306 305 304 304 304 304 305 305 304 303 303 303 303 303 303 303 303 303 303 303 303 304 303 303 303 304 304 304 304 304 304 304 304 304 304 304 304 303 304 304 303 304 304 304 304 304 304 304 304 305 305 305 305 306 306 306 306 306 307 307 307 306 306 306 307 307 308 308 309 310 310 310 310 310 310 310 311 312 311 308 306 305 303
304 305 305 306 305 304 303 303 303 303 303 303 303 302 302 302 302 302 302 302 302 302 302 302 302 303 302 302 302 302 303 303 303 303 304 304 304 303 303 303 303 303 303 303 303 303 303 303 303 304 304 304 304 304 305 305 305 305 305 305 305 305 306 306 306 306 307 307 307 308 308 308 309 309 310 309 308 309 309 309 311 311 309 306 304 302 300
303 304 305 304 303 302 302 302 302 301 302 302 301 301 301 301 301 301 301 301 301 301 301 301 301 301 302 301 301 302 302 302 302 303 303 303 303 303 302 302 303 302 303 303 302 302 302 302 302 303 304 304 304 304 305 305 305 305 304 305 305 305 305 306 306 306 307 307 308 308 308 308 308 309 308 308 308 308 309 309 311 310 307 305 303 301 299
302 303 303 303 302 302 302 301 300 301 301 301 301 300 300 300 300 300 300 300 300 300 300 300 300 300 301 301 301 301 301 301 301 302 302 302 302 302 302 302 302 302 302 303 302 302 302 302 302 303 303 303 303 304 304 305 305 305 305 305 305 305 305 306 306 306 306 306 307 307 307 307 307 308 308 307 308 308 308 310 311 309 306 304 303 301 299
301 301 301 301 301 300 300 300 300 300 300 300 300 300 300 300 300 299 299 299 299 299 300 300 299 300 300 300 300 300 300 300 301 301 301 301 301 301 301 301 301 301 302 302 302 302 302 302 302 302 302 303 303 304 304 304 304 304 304 304 305 305 305 305 305 305 305 305 305 306 306 306 306 307 307 307 308 308 309 309 309 308 305 303 302 301 299
300 300 300 300 300 299 299 299 300 300 299 299 300 299 299 299 299 299 299 299 299 299 299 299 299 299 299 299 299 299 299 299 300 300 300 300 300 301 301 301 301 301 301 301 302 302 302 302 302 302 302 303 303 303 303 304 304 304 304 305 305 305 304 304 304 304 304 304 305 305 305 306 306 306 307 308 308 308 309 308 307 306 303 301 301 300 298
299 299 299 299 298 298 299 299 298 299 299 299 299 298 298 298 298 299 299 298 299 298 298 298 299 299 299 299 299 299 299 299 300 300 300 300 300 300 300 300 301 301 301 301 301 302 302 302 302 302 303 303 303 303 303 303 304 304 305 305 304 304 304 304 304 304 304 304 304 304 305 305 306 307 307 308 308 308 307 307 306 304 302 300 300 299 298
298 298 299 298 298 298 298 298 298 298 298 298 298 298 298 298 298 298 298 299 298 298 298 299 299 299 299 299 299 299 299 299 299 300 300 300 300 300 300 300 300 300 301 301 301 301 302 302 302 302 302 303 303 303 303 303 304 305 305 304 304 304 304 303 303 303 304 304 304 304 305 305 305 306 306 306 307 306 306 306 305 303 301 300 299 299 298
298 298 298 297 297 297 297 298 298 298 298 298 298 298 299 299 299 298 299 299 299 300 299 299 299 299 299 299 299 299 299 299 300 300 300 300 300 300 300 300 300 300 300 300 301 301 302 302 302 303 303 303 303 303 304 304 304 304 304 303 303 303 303 303 303 303 304 304 304 305 305 304 303 303 303 304 304 304 303 303 302 301 300 299 298 297 297
297 297 297 297 297 297 297 298 298 298 298 298 299 299 299 299 299 298 299 299 299 299 299 300 300 299 300 300 299 299 299 300 300 300 300 300 300 300 300 300 300 300 301 301 301 302 301 302 302 302 302 303 304 304 303 304 303 302 302 302 302 302 302 302 302 302 302 303 304 304 303 302 302 300 299 299 299 299 299 300 299 299 299 298 296 296 296
297 297 297 298 298 298 298 298 298 298 299 299 298 298 299 299 299 298 298 298 298 298 298 299 299 299 299 299 299 299 299 299 300 300 300 300 300 300 300 300 301 301 301 301 301 301 301 302 302 302 302 303 304 303 303 302 301 300 300 300 300 300 300 300 300 300 301 302 302 301 300 299 298 297 296 295 295 296 296 297 297 297 297 296 295 295 295
297 298 298 298 298 298 298 298 298 299 299 298 298 298 298 298 298 298 298 297 298 298 298 298 299 299 299 299 299 299 299 299 299 300 300 300 300 300 300 301 301 301 301 301 301 301 302 302 302 302 303 303 303 302 301 301 300 299 299 299 298 298 298 299 299 299 300 300 299 298 297 296 295 295 294 293 293 293 293 294 294 294 294 293 293 292 292
298 298 298 298 298 298 298 298 298 298 298 298 298 298 298 298 298 298 298 298 298 298 298 299 299 299 299 299 299 299 300 300 300 300 300 300 300 300 300 301 301 301 301 301 301 301 301 302 302 302 303 302 302 301 300 299 299 298 298 298 298 297 297 298 298 298 298 298 297 296 295 295 295 294 294 293 293 293 293 292 292 292 292 292 292 292 291
298 298 298 297 297 298 297 297 297 297 298 298 298 297 298 298 298 298 297 297 297 297 297 298 298 297 297 298 298 298 298 299 299 299 299 300 300 300 300 300 300 300 300 300 301 301 301 301 301 302 302 302 301 300 299 299 298 297 297 297 297 297 297 297 297 296 296 296 295 295 295 294 294 294 294 294 294 293 293 293 292 292 292 292 292 292 292
298 297 297 297 297 297 297 297 297 298 298 298 298 298 298 297 297 296 296 296 296 296 296 296 296 295 296 296 296 296 296 297 297 297 298 298 298 298 298 298 299 299 299 299 299 300 300 301 301 301 301 300 300 299 299 298 298 297 297 296 296 296 296 296 295 295 295 295 295 295 295 294 294 294 294 294 294 294 294 293 293 292 292 292 291 291 291
297 297 297 297 297 298 298 297 297 297 297 297 297 297 296 295 295 295 294 294 295 295 294 294 294 294 294 294 294 294 294 294 294 295 296 296 296 296 296 296 297 297 297 298 298 299 299 299 300 301 300 300 300 299 298 298 298 297 296 296 296 296 296 295 295 295 295 295 295 295 295 294 295 295 295 295 295 295 294 294 294 294 293 292 291 291 291
297 297 297 297 297 297 297 297 297 297 297 296 296 296 295 294 294 293 293 293 293 293 293 293 293 292 292 292 292 292 292 292 293 293 294 294 294 294 294 294 294 295 295 296 297 298 298 298 299 300 300 300 299 298 297 297 298 298 297 297 298 297 296 296 296 296 296 296 296 295 295 295 296 296 296 296 296 296 296 296 295 295 294 293 292 292 293
297 297 297 297 297 297 297 297 296 296 296 295 294 294 294 293 293 292 292 292 292 292 292 291 291 291 291 291 291 290 290 291 291 292 291 292 292 292 292 292 292 293 293 294 294 295 296 298 299 301 300 300 298 297 297 297 298 298 298 298 298 297 297 297 297 297 297 296 296 296 296 297 297 297 297 297 297 297 297 297 296 296 296 295 294 294 294
297 297 297 297 297 297 297 296 296 295 295 294 294 293 293 293 292 292 291 291 291 291 291 291 290 290 290 290 290 290 290 290 290 290 290 290 290 290 290 290 291 291 291 291 292 293 295 297 299 300 300 299 297 297 297 297 298 298 298 298 298 297 297 297 297 297 297 296 297 297 297 297 297 297 297 298 298 298 298 298 297 297 296 295 295 295 295
297 297 297 297 296 296 296 295 295 295 294 294 293 293 293 293 292 292 291 291 291 290 290 290 290 290 290 290 289 289 290 290 289 289 289 289 289 289 289 290 290 290 290 290 292 293 294 296 299 300 299 298 298 298 297 298 298 299 299 298 297 297 297 297 297 297 297 297 298 298 298 298 298 297 298 298 298 298 298 298 298 298 297 295 294 294 294
297 297 296 296 296 296 295 295 295 295 294 294 293 293 293 292 292 292 291 291 291 290 289 289 289 289 289 289 289 289 289 289 289 288 288 288 288 289 289 289 290 290 290 291 293 294 295 297 299 299 298 298 298 298 298 298 299 299 299 298 297 297 297 297 297 297 297 297 298 298 298 298 298 298 298 298 298 298 298 298 298 298 297 296 295 295 294
297 297 296 296 296 296 295 295 295 294 294 293 293 293 293 292 292 291 291 291 290 290 289 289 289 289 289 289 289 289 289 289 289 288 288 287 288 288 288 289 289 289 290 291 293 295 297 298 299 298 298 298 298 298 298 298 299 299 298 297 297 297 297 297 297 298 298 298 298 298 298 298 298 299 298 298 297 297 297 297 298 297 297 296 296 295 295
297 296 296 296 296 295 295 295 295 295 294 293 293 293 293 292 292 291 290 290 290 289 289 289 289 289 289 289 289 288 288 288 288 288 287 287 287 287 288 288 288 288 289 289 290 292 295 296 296 296 297 297 297 297 297 297 298 298 298 297 297 297 296 297 297 298 298 297 297 297 298 298 298 298 298 297 297 297 297 297 297 296 296 296 295 295 295
296 296 295 296 296 295 295 295 295 295 294 294 293 293 292 292 291 291 290 290 290 289 289 289 289 289 289 289 289 288 288 288 288 288 288 287 286 287 287 287 287 287 288 288 289 290 292 294 294 294 295 295 296 296 296 297 297 297 297 297 297 297 297 297 298 298 297 297 297 297 297 297 297 297 296 296 296 296 296 296 296 295 295 295 295 295 294
296 295 295 295 295 295 295 294 294 294 294 294 293 293 292 292 291 291 291 290 289 289 289 289 290 290 290 290 289 288 287 287 287 287 287 287 286 286 286 287 287 287 287 287 288 290 291 292 293 293 293 294 295 295 296 297 297 297 297 297 298 298 298 298 298 298 298 297 297 297 297 296 296 296 295 295 294 294 294 295 295 295 295 295 295 294 294
296 295 295 295 295 295 294 294 294 294 294 294 293 293 292 292 291 291 290 290 290 289 289 289 290 290 290 290 290 289 288 287 287 287 287 287 287 286 286 286 286 286 287 287 288 289 290 292 292 293 293 293 294 294 296 296 297 297 297 297 297 298 298 298 297 297 297 296 296 295 295 295 295 295 295 294 294 294 294 294 294 294 294 294 294 293 292
296 296 295 295 295 295 294 294 293 293 293 293 293 293 292 291 291 291 291 290 291 290 290 290 290 290 290 290 289 289 289 288 287 287 287 287 287 286 286 286 286 286 287 287 288 289 290 291 292 292 292 292 293 293 294 295 295 295 296 296 296 296 296 297 296 296 296 295 295 294 294 294 294 294 295 295 294 294 294 294 294 294 294 293 293 292 291
296 295 295 295 295 295 294 293 293 293 293 292 292 292 292 291 291 290 290 290 291 291 291 290 290 290 289 289 289 289 289 288 287 286 286 286 287 287 286 286 286 286 287 287 288 289 290 290 291 291 291 292 292 292 293 293 294 294 294 295 295 295 295 295 296 296 295 295 295 294 294 294 294 294 294 293 293 293 293 293 293 292 292 292 291 291 290
296 295 295 295 295 295 294 293 292 292 292 292 292 291 291 291 290 290 290 290 290 291 291 291 291 290 289 289 288 288 288 288 288 287 286 285 285 286 286 286 285 286 286 287 288 288 289 290 290 291 291 291 291 291 292 292 292 293 293 294 294 294 294 294 295 295 295 295 294 294 294 294 294 293 293 292 292 292 292 291 291 291 290 290 290 289 289
295 295 295 295 295 295 294 293 293 292 292 292 291 291 291 291 290 290 290 289 290 290 290 291 291 291 290 289 288 288 287 287 287 287 287 286 285 285 285 285 285 285 286 286 287 287 288 289 290 290 291 291 291 291 291 291 291 292 292 292 293 293 294 294 294 294 294 293 293 293 293 293 292 292 291 291 290 290 290 290 289 289 289 288 288 288 287
295 295 296 296 295 295 295 294 293 293 292 292 291 291 291 291 291 290 290 289 289 289 290 290 290 291 291 290 289 288 287 286 286 286 286 286 285 285 284 284 284 285 285 286 286 286 287 288 289 290 290 291 291 291 291 291 291 291 291 291 292 292 292 293 293 293 292 292 292 292 291 291 290 290 290 289 289 289 288 288 288 288 287 287 287 286 286
295 296 296 296 296 296 295 294 293 292 292 291 291 291 291 291 291 291 290 290 290 289 289 289 289 290 290 290 289 288 288 287 285 285 285 286 285 285 284 284 284 284 285 285 286 286 287 287 288 289 290 290 290 291 291 291 291 290 290 290 290 291 291 291 291 291 291 291 291 290 290 289 289 288 288 287 287 287 287 287 287 287 286 286 286 285 285
296 296 295 295 296 296 295 295 294 293 292 292 292 292 291 291 292 291 291 290 290 290 289 289 288 289 289 290 290 289 288 287 286 285 285 285 285 285 284 284 283 284 284 285 285 285 286 287 288 288 289 289 290 290 290 290 290 290 290 290 290 290 290 290 289 289 289 289 289 289 289 288 288 287 287 287 287 287 287 287 286 286 286 285 285 285 284
296 296 296 296 296 296 296 295 294 293 293 293 293 293 292 291 292 291 291 290 290 290 290 289 288 288 288 288 289 289 289 288 287 286 285 285 285 285 285 285 284 284 284 284 284 285 286 286 287 287 288 288 288 288 288 288 288 288 288 288 289 289 289 289 289 289 288 288 288 288 288 288 287 287 287 287 287 287 287 286 286 286 286 285 285 285 284
296 296 296 295 296 296 296 296 294 293 293 294 294 293 292 292 292 292 291 291 291 291 291 290 289 288 288 288 288 288 288 288 287 287 286 286 285 285 285 285 285 285 285 284 284 284 285 285 286 287 287 287 287 287 287 287 287 287 287 287 287 287 287 288 288 288 288 288 288 287 287 287 287 287 287 286 286 286 286 285 285 285 285 285 285 285 284
297 296 295 295 296 296 296 296 295 294 294 294 294 293 292 292 292 292 292 292 291 291 291 290 290 289 289 288 288 287 287 287 286 286 286 286 286 285 285 285 286 286 286 285 285 284 285 285 285 285 286 286 286 286 286 286 286 285 286 286 285 286 286 286 287 287 287 287 287 287 286 286 286 286 286 286 286 286 285 284 284 284 284 284 284 284 284
297 297 296 296 296 296 296 296 296 295 294 294 294 293 292 292 293 293 292 291 291 291 291 290 290 289 289 288 288 288 287 287 286 286 286 286 285 285 285 285 285 286 286 286 285 284 284 285 285 285 285 285 285 285 285 285 285 285 285 285 285 285 285 285 286 286 286 286 286 286 286 286 286 286 285 285 285 285 285 284 284 284 284 284 284 284 284
296 296 296 296 296 296 297 296 296 295 294 294 294 293 292 292 293 293 292 291 291 292 291 290 290 289 288 288 288 288 288 287 287 287 287 286 286 285 285 285 285 285 286 286 286 285 284 284 284 285 285 285 285 284 284 284 284 284 284 284 284 284 284 285 285 284 284 285 285 285 285 285 285 285 285 285 285 285 285 284 284 284 284 283 283 283 283
295 296 296 296 296 296 296 294 294 294 294 294 294 293 292 292 293 292 291 289 290 292 291 290 290 289 289 287 287 286 286 286 286 286 286 286 286 285 285 285 285 285 285 285 285 285 285 284 284 284 284 285 284 284 284 284 284 284 284 284 284 284 284 284 284 284 283 284 284 284 284 284 284 284 284 284 284 284 284 283 283 283 283 283 283 282 282
Wind_Speed
14 15 15 15 14 13 14 14 14 13 14 13 10 8 10 9 8 8 8 9 11 11 9 9 9 7 6 5 2 1 2 4 6 7 6 6 6 7 7 7 6 6 6 5 5 7 8 8 9 10 10 9 9 9 9 8 7 7 6 5 5 5 4 4 3 2 1 1 1 1 3 4 6 6 8 12 16 19 20 21 21 21 22 22 21 21 23
13 14 14 14 14 13 14 15 15 14 14 15 14 12 12 12 12 13 13 12 12 11 10 9 9 9 9 8 5 3 5 7 6 8 9 8 8 7 7 7 6 5 6 5 5 5 6 7 8 8 8 8 8 7 7 6 5 5 5 4 4 3 2 2 2 1 1 1 2 3 4 5 6 7 8 11 13 13 13 15 16 18 20 21 21 21 22
10 12 13 13 13 14 15 16 14 14 14 15 14 12 10 11 11 12 12 11 9 7 9 11 9 8 9 10 9 9 8 9 9 9 10 10 9 8 7 7 7 6 5 5 5 5 4 5 6 6 5 5 6 6 5 4 4 4 4 3 2 1 1 1 1 2 3 3 3 3 4 5 5 6 7 9 11 11 11 11 12 14 16 17 19 20 20
8 9 12 13 13 14 15 15 13 13 13 12 11 10 9 8 8 9 9 9 7 6 8 11 10 9 12 13 11 8 7 8 10 11 11 9 9 9 6 7 7 7 6 4 4 4 3 4 5 5 4 4 6 6 4 3 3 3 3 2 1 1 2 3 3 3 3 3 4 4 4 5 5 6 7 7 9 10 10 10 11 12 13 14 16 17 18
7 9 11 11 10 10 11 9 8 10 11 11 11 11 11 10 9 8 7 7 8 8 9 10 8 9 12 11 8 8 8 8 9 8 8 10 11 9 6 6 7 6 5 5 5 2 1 1 3 3 3 4 5 4 2 3 2 1 1 0 1 1 2 3 4 4 4 5 5 5 5 5 6 7 7 8 9 10 10 10 11 13 15 15 16 17 17
7 10 11 10 8 8 6 4 4 7 9 10 9 9 9 10 9 8 7 9 10 8 9 10 7 8 11 11 11 12 8 6 9 10 8 6 5 5 3 5 4 2 3 6 7 3 4 3 5 4 0 3 3 2 2 2 1 1 2 2 2 2 2 4 4 5 5 6 6 6 6 6 7 7 8 9 9 10 11 12 12 13 14 16 17 17 18
7 8 8 8 8 6 5 7 6 5 7 8 8 9 11 11 11 12 11 11 10 9 9 9 7 6 8 10 12 12 9 7 8 10 9 5 2 1 2 4 4 6 6 6 4 1 4 4 4 5 3 3 2 2 1 1 1 2 3 3 3 3 4 4 5 6 6 6 6 6 6 7 8 9 10 10 11 11 11 12 13 13 14 14 15 17 18
6 6 7 8 8 7 8 8 6 5 3 5 7 8 8 8 10 12 12 10 9 10 10 9 7 7 8 8 8 9 9 9 10 12 10 4 2 2 5 7 6 7 4 2 2 2 5 8 8 6 2 0 1 2 2 2 3 4 4 4 5 5 5 5 7 7 7 7 6 7 7 8 9 10 11 11 11 11 12 13 13 14 15 16 16 16 17
6 7 8 8 9 11 9 5 7 6 4 4 4 4 5 7 8 7 9 10 10 10 9 8 9 9 8 6 5 9 11 9 8 11 12 9 8 7 6 5 4 3 1 5 4 1 4 7 8 8 6 4 3 4 4 5 5 5 5 6 6 6 6 7 8 8 8 8 8 8 9 9 10 11 11 11 11 12 12 13 13 14 15 16 17 17 17
6 7 7 7 8 7 2 5 8 8 7 7 6 4 4 5 5 8 9 10 12 11 9 8 9 8 6 4 3 9 12 10 7 8 9 8 9 5 2 1 1 2 4 6 6 4 6 7 8 9 8 6 5 6 7 6 7 7 7 7 7 8 8 8 9 9 9 10 10 10 10 10 11 11 11 12 12 12 13 14 14 14 15 16 16 15 14
6 6 6 7 6 2 4 6 6 7 7 6 4 3 2 6 11 10 8 8 10 11 10 9 7 5 4 3 4 7 11 10 8 7 8 7 5 2 1 1 2 3 2 3 4 7 10 11 10 9 8 8 8 9 8 8 8 8 8 9 9 9 10 10 10 10 11 11 11 11 11 12 13 12 12 13 13 13 13 13 13 14 14 13 9 5 4
7 7 7 7 4 2 6 7 6 7 7 6 4 4 1 7 10 8 7 8 8 8 9 8 6 5 4 4 5 6 8 8 8 8 9 9 7 6 5 5 7 6 3 3 6 10 12 12 11 10 10 11 10 10 9 9 10 10 10 11 11 11 11 11 11 12 12 12 12 13 13 13 12 12 13 13 13 13 13 12 13 13 9 4 1 3 4
8 8 8 6 1 3 6 8 7 5 5 3 3 3 1 5 8 8 7 8 9 8 8 7 5 5 6 6 7 9 8 7 8 9 10 11 11 10 10 10 13 12 8 8 10 13 13 14 13 13 12 11 11 11 11 11 11 11 12 12 12 13 13 13 13 13 13 13 13 13 13 13 12 12 12 12 12 12 12 12 13 9 3 2 5 7 7
7 5 7 7 3 1 5 8 7 5 3 1 1 3 4 5 8 9 8 8 9 8 8 7 6 7 8 9 10 11 10 10 9 8 9 10 10 12 13 12 13 12 11 12 13 14 14 15 15 14 13 13 13 13 12 12 13 13 14 14 14 14 14 14 14 15 15 15 15 15 15 14 14 13 12 12 12 12 11 12 10 4 4 6 8 10 10
5 5 6 6 3 1 4 6 5 5 4 3 3 5 7 7 8 9 8 8 9 8 8 9 9 9 10 11 11 11 12 12 12 12 12 10 10 10 12 14 15 15 14 15 15 15 15 17 17 15 14 15 14 14 14 15 15 15 15 15 15 15 15 15 16 16 16 15 15 15 16 16 15 15 14 14 13 11 12 13 9 3 7 9 10 11 12
2 4 4 2 2 4 4 5 5 4 4 5 5 6 7 8 8 8 8 8 9 10 9 9 10 11 11 11 11 12 12 11 12 13 14 14 13 13 14 16 18 17 17 17 16 16 16 17 17 16 16 15 15 14 15 15 15 15 16 16 17 17 17 16 16 15 14 14 14 14 15 16 16 16 16 15 13 12 13 13 8 7 9 10 12 13 13
2 5 5 3 3 4 4 6 4 4 5 6 7 8 8 8 8 8 8 9 10 11 11 11 11 11 11 12 12 12 13 13 13 14 16 18 18 18 17 18 19 20 20 20 18 17 17 16 16 16 16 16 16 15 15 16 16 17 17 17 17 17 17 16 16 15 14 15 15 15 16 16 16 17 16 13 12 12 11 9 7 9 10 10 11 13 13
5 6 6 6 7 7 7 6 6 7 7 7 8 9 8 8 9 9 9 10 11 12 12 12 11 11 13 14 14 14 14 14 14 16 18 20 21 20 19 19 20 21 20 20 18 17 17 17 18 18 17 16 16 16 16 16 17 18 18 17 17 16 17 17 17 17 17 17 17 17 17 17 17 17 15 11 8 8 7 6 9 12 12 11 11 13 14
6 5 5 7 10 10 10 9 9 9 9 9 9 9 8 9 10 11 11 12 13 13 14 14 14 14 14 15 15 14 14 15 15 16 17 19 20 21 20 20 21 21 19 19 17 15 15 16 17 18 18 17 17 18 18 18 19 18 17 17 17 17 17 18 18 18 19 18 17 17 17 17 17 14 11 6 5 6 8 9 11 12 12 13 14 15 15
6 7 7 9 11 11 9 8 8 8 9 11 11 11 11 12 13 13 13 14 14 13 14 15 16 16 16 16 16 14 14 14 15 15 18 21 21 21 21 21 20 19 19 18 16 14 14 14 16 17 18 19 19 19 19 19 18 18 17 17 16 16 17 17 17 18 19 18 18 17 16 14 11 7 4 4 5 7 9 12 14 14 14 15 16 16 16
6 7 7 9 11 9 8 8 9 10 10 12 13 14 14 14 14 14 15 16 15 14 15 14 15 16 15 15 16 16 14 14 15 17 21 23 23 22 22 21 19 18 18 16 15 16 16 16 17 18 19 19 20 19 19 17 15 14 15 15 14 15 16 17 18 19 20 19 19 18 12 6 4 5 5 6 9 10 10 13 16 17 17 17 16 17 18
5 6 8 9 10 8 8 11 13 13 13 13 14 13 13 13 13 12 13 14 14 15 16 15 14 14 13 14 16 15 14 14 17 20 23 24 24 24 22 21 20 19 19 17 17 17 18 18 18 18 18 18 17 15 13 11 9 9 11 13 13 14 16 17 17 17 16 16 16 12 8 10 11 10 9 8 10 11 12 14 16 18 19 18 16 16 16
6 8 10 10 9 9 9 12 13 13 13 13 13 12 12 11 11 12 12 13 13 14 15 16 16 14 13 15 16 15 15 18 20 22 24 24 24 24 21 20 19 19 19 19 19 18 18 17 17 17 16 13 10 8 6 5 6 7 9 11 12 13 13 13 14 14 15 15 11 8 12 15 17 18 18 16 14 14 16 17 17 17 18 18 17 16 16
8 10 11 9 9 10 12 13 13 12 11 11 11 12 12 12 12 13 12 13 13 13 13 15 18 17 16 18 18 15 16 20 21 22 23 24 25 24 20 17 18 19 19 19 18 17 16 15 15 16 12 5 4 4 4 4 5 6 7 7 9 10 11 11 12 14 15 13 11 14 16 18 21 24 26 25 23 20 18 18 18 18 19 19 18 17 17
8 10 10 10 10 11 11 11 11 11 11 11 11 11 13 14 15 15 14 13 15 16 14 14 18 20 19 20 19 17 18 20 21 21 20 20 21 23 18 13 14 19 19 17 15 15 14 12 14 15 10 4 4 2 3 4 4 4 4 4 4 4 4 5 5 5 6 10 15 19 20 20 21 22 24 25 25 24 23 23 22 22 22 21 20 19 17
8 9 10 10 10 9 9 9 9 10 13 14 12 12 15 17 17 17 17 16 16 16 15 14 16 18 17 17 17 17 17 18 19 18 17 15 16 18 15 10 10 14 15 14 13 14 13 12 12 11 5 2 3 4 6 5 5 5 5 4 4 5 6 5 6 9 13 17 19 21 21 21 21 20 21 21 23 24 24 23 22 21 20 19 17 16 16
8 8 9 10 10 9 9 10 11 12 14 15 14 15 17 17 16 16 16 16 15 15 14 14 15 16 16 15 15 16 16 16 15 14 13 12 12 13 13 11 9 10 12 12 12 13 13 12 12 8 2 3 6 7 7 8 8 8 7 7 7 7 8 10 12 14 16 18 20 20 21 21 22 22 21 21 21 22 21 20 19 18 16 15 13 13 13
7 8 8 9 9 11 12 13 14 14 14 15 15 15 15 14 14 13 12 13 14 14 14 15 15 15 15 14 14 15 15 15 14 14 13 13 12 12 13 13 11 11 11 11 13 13 13 12 10 5 1 6 9 10 9 10 10 9 9 10 11 11 13 14 15 16 19 20 19 19 18 19 20 21 20 18 18 19 18 18 17 16 14 13 11 10 9
8 8 8 8 9 11 12 12 12 12 12 13 13 13 12 12 11 11 10 11 13 13 13 14 16 15 15 14 14 14 14 14 15 14 14 13 12 11 12 12 12 12 11 11 13 13 13 15 11 3 10 11 10 12 13 13 12 11 10 10 8 9 12 14 15 16 17 17 16 16 17 18 18 17 16 16 16 16 16 15 15 15 14 14 13 11 9
8 8 8 9 10 11 10 9 9 9 9 10 11 11 11 11 10 9 10 11 11 11 12 14 15 15 14 14 14 14 14 15 15 13 12 11 11 11 12 12 12 12 11 11 13 12 12 15 11 8 15 15 13 16 17 16 13 10 8 6 5 4 7 11 13 15 15 15 17 19 19 17 15 14 14 15 15 15 15 15 15 15 15 15 14 12 10
9 9 10 9 9 10 9 8 7 8 8 9 10 10 10 10 10 10 10 10 10 11 13 14 14 13 14 15 15 15 15 14 12 11 10 10 10 10 11 11 11 12 11 12 13 13 12 14 11 13 19 18 18 20 19 15 11 9 7 4 3 5 8 10 11 14 17 19 22 21 18 15 14 13 14 15 15 14 13 13 15 14 13 13 11 9 9
10 10 11 10 9 9 8 7 7 8 8 8 8 9 9 9 10 9 9 10 10 12 13 14 13 15 16 16 16 16 14 11 9 9 9 9 9 10 9 8 8 9 10 13 14 13 13 14 11 17 23 21 20 21 19 14 10 8 7 5 5 9 11 9 8 13 17 18 17 16 14 13 13 13 12 12 14 14 12 12 13 15 16 16 14 11 8
9 9 10 10 9 9 8 7 7 7 7 7 7 8 9 9 10 10 10 11 12 13 14 14 15 16 17 16 17 17 14 9 8 9 10 10 11 13 12 9 8 8 9 9 11 14 16 14 12 23 26 22 20 19 17 13 10 7 7 9 10 11 10 7 8 12 12 10 9 10 11 11 10 10 9 8 9 10 8 9 15 19 19 17 16 13 9
7 7 7 7 7 6 6 6 6 5 5 6 7 8 10 11 11 11 12 13 13 13 14 15 16 17 16 16 18 19 15 9 8 10 13 15 16 17 15 11 8 9 11 11 2 10 15 11 17 26 25 20 18 16 13 11 9 8 11 14 13 10 8 9 12 12 9 8 10 12 13 12 10 12 14 15 16 17 17 18 18 18 16 15 15 15 13
7 7 5 5 5 4 3 4 5 5 5 6 7 8 9 11 11 12 13 13 12 13 15 16 16 16 16 16 17 18 16 13 12 14 17 19 20 18 16 15 12 12 17 24 21 11 13 19 25 26 22 19 17 14 11 10 11 12 15 16 13 10 8 9 11 11 10 11 13 14 13 12 13 15 16 17 17 18 17 16 16 15 14 12 10 10 11
7 5 4 3 2 3 4 6 7 8 7 6 6 7 8 10 11 11 11 11 11 14 17 17 16 15 15 15 16 18 19 18 17 17 18 20 20 18 17 18 18 17 19 26 28 24 25 28 27 24 22 20 17 15 13 12 13 15 16 15 14 10 7 6 9 14 14 13 14 15 14 13 14 15 16 16 16 16 15 14 13 11 11 10 7 5 7
5 4 2 2 3 5 7 7 7 8 7 6 6 6 6 7 7 7 8 9 11 14 16 17 16 14 13 13 16 19 22 22 21 19 18 18 19 20 20 21 21 20 18 21 24 25 27 28 26 25 24 22 19 17 16 15 14 14 14 14 13 9 7 4 8 13 14 13 14 14 13 13 14 14 14 14 14 13 12 12 11 10 9 8 7 6 7
3 2 2 3 5 6 7 6 6 6 6 5 4 3 2 3 4 5 7 7 8 11 14 15 14 13 12 12 14 17 20 22 22 20 18 16 17 20 22 23 22 20 18 18 21 24 26 26 26 26 26 23 21 19 17 16 15 14 13 12 8 5 4 7 11 14 14 15 14 14 13 13 13 13 13 13 14 14 13 11 10 9 8 8 8 10 10
3 4 4 5 6 6 5 5 3 3 3 3 3 2 1 2 4 6 7 6 6 8 12 14 12 11 12 13 13 13 15 18 19 19 18 16 15 18 21 24 24 23 20 19 21 25 26 27 27 27 25 23 21 19 17 17 17 15 13 11 9 9 10 13 15 15 16 15 14 14 14 14 13 12 12 12 12 13 13 11 10 9 9 9 10 11 12
4 5 5 5 4 3 3 2 1 2 3 4 4 4 4 4 5 6 7 7 7 7 10 13 13 12 12 13 12 11 12 14 16 17 17 16 14 14 17 21 23 23 21 20 23 27 29 30 29 28 25 22 20 18 18 18 18 17 15 14 13 14 14 14 14 15 15 14 13 13 13 13 12 12 12 11 11 12 11 10 10 9 9 9 9 10 10
5 5 6 5 3 2 1 1 1 2 2 3 4 5 5 5 6 6 7 8 8 8 9 10 11 12 12 12 12 12 11 11 13 16 18 17 15 12 13 16 21 22 22 24 27 30 30 30 28 26 25 23 21 19 18 19 20 20 19 16 15 15 16 15 15 14 13 13 12 12 11 11 12 12 12 12 12 11 11 10 10 10 10 11 11 11 10
5 6 5 4 3 1 1 1 1 1 2 2 3 5 5 5 6 7 7 8 9 9 9 9 8 9 11 12 12 12 12 11 12 15 17 18 17 15 12 14 19 22 23 25 27 28 28 28 26 24 22 22 21 20 19 19 20 21 21 20 18 16 16 15 14 14 13 13 13 11 11 11 11 12 12 12 12 12 11 10 11 11 11 11 11 11 10
7 7 5 4 3 2 2 2 2 1 2 2 3 4 4 5 6 7 7 8 9 9 10 10 8 8 9 10 11 12 13 13 12 12 13 15 18 18 15 15 18 21 21 21 23 25 25 25 24 22 20 19 19 19 20 21 21 21 21 20 19 17 16 15 14 14 13 13 13 12 12 12 12 12 12 12 12 12 11 11 10 10 10 10 9 9 9
8 8 6 5 4 3 3 2 2 1 1 2 2 3 3 4 5 6 7 7 8 8 9 10 10 10 9 9 9 10 12 13 13 12 10 10 14 18 17 15 16 18 18 17 19 22 23 22 21 20 19 18 16 15 17 18 19 19 20 19 18 17 16 15 14 14 13 13 12 12 12 13 13 13 13 12 12 11 11 11 10 9 8 8 8 8 8
9 9 7 5 4 4 4 3 1 1 1 1 1 1 1 2 3 4 5 5 6 7 8 9 9 10 10 9 8 9 10 11 12 13 11 9 9 12 15 16 16 16 16 16 18 20 22 20 19 19 18 18 16 15 15 15 15 16 16 17 17 16 16 15 15 14 14 13 12 12 12 12 12 12 12 12 11 11 10 10 9 8 8 9 9 8 8
10 9 8 7 6 6 6 5 3 2 2 3 4 3 2 1 2 3 3 4 5 5 7 8 9 9 10 10 8 8 10 11 11 12 12 11 9 9 12 16 19 19 18 18 19 20 20 19 19 19 18 17 17 16 16 15 15 14 14 14 14 15 15 14 14 14 14 13 12 12 12 12 12 12 11 11 11 10 10 10 9 8 8 9 8 8 8
11 10 10 9 8 7 7 7 5 3 5 6 4 4 4 2 1 2 3 3 3 4 6 7 8 9 10 11 10 9 9 9 10 11 11 11 10 10 11 13 15 19 21 21 20 20 19 19 19 19 18 17 17 17 16 15 15 14 14 14 14 14 13 13 13 12 12 12 12 12 12 12 11 10 10 10 10 10 9 9 8 7 8 8 9 9 9
11 10 10 11 10 9 8 8 7 7 8 7 3 3 3 2 1 1 1 1 1 3 5 6 6 7 9 10 11 11 10 9 9 9 9 9 10 10 11 11 11 13 16 18 18 19 19 19 18 18 17 17 16 16 16 16 15 15 15 15 14 14 13 13 12 11 11 10 10 11 11 10 10 9 9 9 9 9 8 9 9 9 8 8 8 9 9
10 10 11 12 12 11 10 9 9 10 9 6 4 3 3 3 3 3 2 1 1 2 4 5 5 6 8 9 9 10 10 10 9 9 9 9 9 9 10 12 12 10 10 11 13 15 16 17 17 17 16 16 15 15 15 15 15 14 14 13 13 13 13 12 12 11 11 10 10 10 9 9 9 9 8 8 8 7 7 8 11 11 10 8 8 9 9
9 10 11 12 13 13 12 12 11 12 10 7 5 5 4 4 5 3 3 3 1 1 3 5 5 5 6 7 8 8 9 9 9 9 9 9 10 9 9 10 11 10 9 9 10 11 12 13 13 13 14 14 14 14 13 13 13 13 13 12 12 12 12 12 11 11 10 10 10 9 9 9 8 8 8 8 8 7 6 6 8 10 10 9 8 9 9
9 10 11 12 13 13 13 13 14 14 12 8 6 5 4 5 4 2 3 2 2 2 3 4 4 4 5 6 7 7 7 7 8 8 7 7 9 9 8 8 9 10 10 9 9 10 11 12 12 12 12 12 13 13 13 12 12 12 12 11 10 10 9 9 10 10 10 10 9 8 8 8 8 8 8 8 7 6 6 7 8 8 9 9 9 9 9
11 10 10 11 12 12 12 14 16 19 18 11 7 6 5 6 5 3 4 3 3 2 3 5 4 4 5 5 6 6 6 6 7 8 8 7 7 8 8 8 8 8 9 9 9 9 9 11 11 12 11 11 11 11 11 12 12 11 11 11 10 10 10 10 10 10 9 9 9 8 8 8 8 8 8 7 7 7 7 8 8 9 9 9 9 9 9
Wind_Direction
266 272 276 281 283 283 282 282 284 286 287 282 270 265 278 285 281 278 290 302 295 294 307 323 331 328 317 312 300 215 243 223 187 182 206 204 185 175 156 142 139 130 123 119 114 113 114 118 118 116 116 114 105 100 99 99 98 96 90 82 85 91 98 101 93 89 138 155 177 253 270 256 247 241 238 242 243 245 251 253 251 253 254 250 248 247 245
276 277 279 284 285 283 283 279 278 279 280 280 277 272 271 272 275 282 288 288 284 289 296 299 311 326 322 313 298 259 252 250 221 198 211 222 222 214 184 163 163 146 130 125 115 111 115 118 115 107 107 112 109 100 94 94 94 92 87 77 68 68 77 88 78 336 296 284 255 258 262 258 256 247 234 235 240 246 257 263 260 257 254 251 251 250 249
285 284 285 284 281 282 283 281 284 289 286 280 279 279 276 271 274 283 288 288 286 297 309 302 298 303 295 280 274 267 249 244 238 224 225 230 236 241 216 179 169 155 146 144 134 128 118 108 108 104 101 110 112 103 91 86 77 65 66 67 57 32 2 359 318 286 288 290 280 277 278 273 270 267 257 247 242 242 250 261 264 262 259 255 254 257 256
281 284 282 281 284 287 282 280 291 298 290 282 280 279 277 275 281 288 291 292 290 300 307 294 287 297 289 274 272 284 278 265 255 238 227 226 237 250 232 183 176 172 166 158 133 122 139 149 140 134 146 149 126 113 108 107 95 70 70 63 8 341 327 313 302 296 297 295 290 288 289 290 288 285 283 279 270 261 254 253 254 254 256 256 254 256 257
285 287 289 299 307 294 279 281 299 296 286 287 288 281 277 280 280 276 272 275 284 303 311 297 297 322 317 304 308 323 332 332 312 283 250 233 238 250 233 196 195 194 175 146 115 65 320 170 116 106 135 126 106 105 118 123 122 106 97 192 262 268 285 297 301 300 297 291 287 285 284 288 292 293 289 285 285 284 281 274 263 250 247 249 250 249 251
279 288 298 302 289 270 270 287 313 312 301 297 302 307 309 308 302 295 290 285 290 315 329 317 324 345 337 334 337 329 326 345 337 316 295 272 275 284 236 198 190 155 96 96 91 31 324 4 23 1 35 113 117 160 174 133 104 345 309 274 261 254 274 285 290 294 293 289 287 287 288 288 289 287 283 281 282 284 284 283 279 268 258 252 248 248 249
274 285 291 277 262 262 284 286 296 328 321 307 309 308 307 315 327 327 314 296 297 314 317 313 324 337 332 332 332 328 336 358 345 318 300 285 289 292 153 130 88 64 60 69 83 311 309 333 312 270 220 156 169 201 187 148 267 281 282 289 296 293 288 289 291 291 286 280 282 285 286 287 285 280 277 278 280 278 277 277 278 279 275 267 259 253 249
273 275 263 258 271 288 292 297 332 10 339 305 297 287 295 326 341 338 325 313 313 311 305 310 325 334 339 329 321 337 359 12 12 354 332 305 212 152 112 101 83 68 52 340 309 328 323 313 295 276 265 47 284 278 283 271 263 267 277 290 292 288 286 287 288 290 287 282 282 282 282 281 280 280 277 276 276 274 274 274 273 275 276 274 270 262 254
259 268 265 267 282 286 286 325 24 31 18 3 341 305 313 320 316 332 345 344 334 317 310 336 355 356 351 326 332 4 359 354 17 11 358 18 61 73 81 96 100 101 192 269 272 249 266 280 293 302 308 308 296 291 290 285 282 279 279 280 283 287 293 292 292 294 292 288 283 280 280 278 277 278 279 279 279 276 275 274 272 272 273 272 271 267 259
252 265 270 270 273 279 316 61 55 39 34 32 16 338 323 333 1 29 27 13 357 341 335 354 3 357 337 310 358 10 351 350 26 17 358 30 67 80 88 105 159 212 237 249 250 263 285 287 288 290 291 294 296 290 285 284 283 283 286 289 293 296 296 296 298 299 295 292 289 285 282 280 280 281 279 278 277 275 275 276 274 275 278 278 277 274 260
252 257 262 265 264 283 48 55 51 42 30 8 334 289 307 19 34 36 24 10 3 355 353 356 350 332 312 321 13 1 344 352 15 3 346 5 35 28 332 307 280 273 297 311 283 287 296 288 275 275 282 286 285 281 282 284 284 285 286 286 287 288 290 293 295 294 292 290 287 283 280 277 276 278 279 278 276 274 274 276 277 277 280 281 282 279 238
247 248 254 259 258 41 34 23 29 35 18 344 298 241 278 11 14 12 1 354 348 344 345 344 333 322 325 340 351 341 333 333 336 337 339 345 351 340 317 324 332 325 322 314 287 281 284 282 279 280 279 274 272 273 274 274 272 272 273 273 275 279 283 286 286 284 283 281 279 278 274 270 269 270 271 270 270 271 272 272 275 279 281 279 151 115 133
245 244 251 254 226 55 8 356 0 4 357 333 283 252 292 350 349 351 352 341 332 331 331 324 317 325 329 327 322 317 311 310 317 329 332 330 330 322 308 322 339 334 313 293 282 277 279 282 283 282 278 276 276 275 271 269 270 271 271 272 274 276 278 279 279 279 279 278 279 280 278 274 270 268 268 268 268 271 273 272 273 273 261 142 131 124 129
257 258 261 261 244 57 334 340 353 351 332 326 322 315 312 318 330 339 338 328 325 328 325 318 317 322 320 316 314 311 308 309 311 313 315 313 309 303 298 300 305 301 294 293 288 281 278 276 273 274 276 276 276 277 276 273 273 275 276 275 275 275 275 276 278 281 282 281 280 280 277 274 269 265 265 267 270 273 275 277 275 251 145 138 136 128 128
274 270 263 267 271 279 307 330 4 20 2 348 341 327 321 323 330 329 324 320 319 318 317 314 311 312 313 312 309 306 305 305 303 301 302 295 286 294 300 293 283 277 276 278 280 285 291 292 289 286 282 277 273 271 272 273 275 277 278 278 278 277 276 276 278 279 278 277 276 276 275 271 264 259 257 259 265 270 270 273 269 195 139 132 127 124 125
285 265 267 271 223 242 287 337 8 21 360 336 326 320 316 318 319 312 307 312 313 309 308 307 306 304 302 300 300 300 298 295 294 295 294 287 283 286 284 278 276 276 274 272 269 267 266 268 273 276 277 279 280 276 274 278 282 283 283 282 280 279 277 276 276 276 276 277 276 275 277 275 269 265 260 255 254 253 255 259 242 164 139 133 130 128 128
305 291 305 315 265 267 344 17 5 336 327 318 312 309 303 306 315 316 316 322 326 321 313 308 305 301 297 295 294 293 292 291 291 289 285 283 283 282 279 280 282 280 277 276 277 278 274 268 269 275 280 281 282 281 281 283 284 284 284 283 281 280 282 282 282 282 284 286 285 283 281 279 277 277 272 260 249 246 250 250 213 163 147 144 141 138 137
313 307 307 311 312 325 348 347 319 315 319 314 313 312 312 319 328 328 323 321 321 319 313 307 302 297 297 297 293 291 291 290 289 288 284 282 283 282 281 284 284 283 283 283 284 290 295 293 290 291 292 288 285 286 287 286 285 283 283 283 284 285 286 287 288 287 285 285 285 284 282 278 276 276 275 268 257 252 242 215 186 168 157 154 149 143 140
307 306 305 318 329 339 341 332 325 325 320 317 323 325 325 327 323 318 316 311 306 304 301 297 294 292 292 292 289 290 291 287 286 287 285 283 284 284 283 281 277 276 280 282 280 279 282 288 294 298 298 295 291 289 286 283 282 282 283 286 288 287 285 284 284 283 282 282 280 280 281 280 277 275 277 276 259 239 213 185 170 163 161 161 156 148 143
300 298 313 339 347 344 335 326 322 321 319 323 327 325 322 322 315 309 307 304 299 298 297 295 295 295 294 292 290 290 291 289 287 286 285 284 284 283 283 283 282 280 278 279 286 292 290 291 294 292 289 287 284 282 282 282 284 287 288 286 286 289 290 287 283 280 281 282 282 281 280 279 274 266 259 228 196 188 186 179 172 169 168 164 157 151 148
301 299 324 351 347 329 318 318 319 324 329 329 324 318 314 312 309 306 305 302 300 299 299 301 302 301 300 299 297 295 295 296 295 292 290 290 289 285 283 284 289 294 294 293 300 303 296 288 284 280 277 277 276 278 282 285 288 294 295 291 289 289 288 284 282 281 279 278 279 278 270 244 183 153 152 168 173 171 176 183 181 174 165 158 154 153 153
300 313 329 336 327 312 313 321 321 321 322 318 313 312 312 310 310 309 306 304 303 301 301 301 299 295 295 295 293 292 290 290 292 291 291 292 292 290 288 286 287 290 293 290 286 282 279 277 277 277 278 281 285 290 295 296 298 306 308 305 298 290 285 283 282 282 280 279 278 267 218 163 145 136 132 147 166 167 162 164 166 163 155 147 145 150 152
313 318 320 322 318 309 309 312 312 311 313 312 312 317 319 318 318 317 311 309 308 304 303 302 297 293 293 293 292 292 291 290 291 289 287 289 291 290 292 294 291 286 283 279 273 269 272 276 277 277 282 294 311 326 332 330 326 321 318 313 303 296 294 291 285 282 281 277 261 215 175 158 146 132 120 117 125 133 135 136 141 148 150 146 145 150 150
319 313 317 319 311 304 306 310 311 314 321 325 325 324 321 317 315 313 311 311 311 307 303 300 297 295 295 295 293 292 292 292 292 290 289 289 288 285 285 289 289 283 277 275 274 277 282 287 290 290 295 331 16 358 350 357 348 341 336 322 306 299 298 292 281 273 267 247 199 163 152 147 140 131 122 113 109 110 115 120 127 138 145 144 139 138 137
307 306 317 319 311 310 315 316 317 325 333 334 326 318 315 316 316 316 314 311 310 309 309 307 305 304 304 302 300 300 300 299 298 296 296 297 294 287 281 285 294 292 288 286 288 289 292 301 309 310 320 12 48 46 60 46 21 18 16 346 330 332 324 301 271 237 195 158 139 131 129 129 126 125 122 116 111 110 110 112 116 123 128 129 126 123 120
311 315 325 323 319 322 326 323 323 327 328 325 320 315 318 321 323 322 318 313 314 319 323 323 321 321 320 317 314 312 310 308 307 305 302 301 299 292 286 290 301 303 303 304 301 297 298 302 303 305 317 53 99 106 98 86 75 79 79 69 69 73 67 66 83 100 110 114 116 118 120 120 118 117 117 114 111 109 107 106 106 109 111 114 117 117 116
330 337 338 328 322 325 328 324 322 322 321 321 320 319 324 328 328 323 317 316 323 331 332 330 330 332 330 327 322 319 316 314 315 318 316 314 314 312 312 317 315 310 312 312 303 298 299 294 293 302 325 137 141 128 116 111 105 99 95 94 92 88 85 82 83 87 94 102 109 112 112 111 111 112 111 109 110 111 111 110 109 110 112 114 114 115 117
337 343 338 325 316 318 321 319 316 316 319 323 326 328 332 335 331 325 322 324 331 333 329 329 332 330 328 328 325 321 320 319 318 318 317 316 319 321 323 322 315 308 308 301 292 293 294 287 288 301 191 168 152 134 128 124 114 110 113 110 101 99 100 96 90 92 95 98 100 103 106 110 113 115 118 119 122 124 124 124 123 123 126 130 131 131 129
337 335 328 318 315 318 320 319 319 321 327 335 339 341 344 343 338 335 336 336 334 332 332 334 333 328 327 331 330 326 323 320 316 313 312 312 314 316 317 316 311 306 302 291 283 281 280 283 284 204 158 161 148 135 134 129 120 119 125 118 104 105 112 109 106 109 110 108 107 110 116 121 123 124 126 127 128 130 131 134 137 142 146 151 154 155 151
331 329 323 321 324 327 330 332 331 335 344 350 350 349 350 351 347 343 343 341 339 340 340 338 335 334 335 336 334 330 323 315 311 312 316 318 318 317 315 315 312 307 299 291 287 277 267 272 268 193 159 154 149 145 140 131 126 129 131 116 84 94 127 135 133 130 126 123 126 130 134 137 138 138 138 140 143 145 146 150 156 159 161 164 165 162 154
329 328 324 326 331 334 338 345 346 349 356 359 356 356 359 359 355 352 352 350 349 349 349 346 345 345 344 342 339 335 327 318 316 323 330 331 329 324 318 312 306 300 290 284 287 283 273 272 251 183 159 151 150 150 145 137 133 134 134 120 77 100 136 150 151 149 147 145 146 150 151 148 145 145 147 150 150 146 150 166 176 170 154 145 141 137 140
326 325 327 332 337 340 348 359 1 359 5 9 6 5 5 2 360 0 360 358 359 358 356 355 353 350 348 347 346 344 339 333 337 347 350 348 347 348 345 331 316 310 296 281 271 261 262 268 233 170 155 148 146 148 149 147 144 139 137 125 104 120 134 137 136 146 154 158 160 160 153 145 143 144 148 158 164 165 171 178 166 141 119 107 103 102 115
327 328 331 334 336 343 356 5 4 6 15 20 17 15 13 10 9 8 4 4 6 4 359 355 352 351 350 351 352 353 353 354 3 8 7 5 5 7 8 357 341 337 331 303 263 240 246 249 196 157 149 144 142 144 148 151 153 153 145 133 126 133 140 131 124 136 144 147 144 129 113 115 128 128 117 116 130 137 127 102 101 104 100 92 83 73 69
327 325 329 338 343 350 358 2 6 15 25 31 32 27 19 13 13 11 7 7 8 4 358 355 352 352 355 357 359 360 2 11 24 19 12 13 16 16 17 12 357 356 13 26 32 223 227 205 151 141 140 139 139 142 146 148 147 139 132 134 137 139 133 126 130 135 129 115 110 97 82 76 80 83 80 76 75 78 73 66 72 84 88 83 72 60 57
334 331 345 4 6 4 12 20 24 30 34 35 34 28 18 12 11 8 5 5 4 359 354 351 351 354 360 3 5 7 13 23 29 23 16 18 21 20 21 24 19 18 35 45 53 84 131 129 125 126 128 129 132 136 139 141 135 125 126 134 140 139 134 134 133 126 112 104 104 98 89 82 74 73 77 76 72 72 73 68 68 73 77 79 76 67 68
347 344 3 27 29 43 55 49 40 42 47 43 33 25 17 12 10 5 358 356 356 352 349 349 350 355 4 9 11 15 19 22 24 22 20 21 22 23 28 29 25 25 35 39 42 61 91 105 111 115 116 116 118 120 122 128 129 128 132 137 138 141 155 152 122 110 105 103 102 99 96 89 81 79 81 80 76 77 78 75 74 74 73 72 71 71 79
11 13 40 81 80 64 57 49 40 43 51 51 41 30 18 7 0 352 345 345 348 349 348 345 341 343 356 13 22 24 24 23 22 21 21 21 23 28 33 31 25 25 28 28 33 55 80 94 100 102 102 101 102 104 108 113 119 127 137 143 147 163 190 167 111 104 103 100 98 97 95 90 85 83 82 80 80 83 82 79 78 79 79 76 66 61 71
55 81 113 107 85 67 59 52 43 42 50 57 56 41 356 332 331 335 339 342 345 347 346 341 336 340 355 13 29 32 29 25 22 20 19 21 27 35 37 34 28 26 26 28 39 58 76 89 94 95 93 91 92 97 102 105 108 117 130 139 146 162 151 110 98 97 98 97 96 93 90 87 85 83 81 80 80 81 80 79 77 75 76 75 67 62 66
123 133 120 93 76 68 63 56 39 14 15 37 49 45 359 338 344 350 353 351 350 353 352 348 345 353 5 15 25 33 33 28 24 20 19 23 33 43 45 41 36 34 37 43 52 62 72 81 85 85 85 87 88 90 94 99 102 104 107 104 93 85 90 93 91 88 89 92 92 89 87 85 84 84 86 86 85 83 81 79 77 72 69 67 63 60 61
149 137 118 98 84 75 66 59 39 347 341 5 27 32 23 8 2 2 1 358 359 6 6 1 359 5 13 16 19 26 36 37 30 23 23 28 35 43 46 41 36 36 42 49 55 62 68 73 76 76 76 78 81 82 85 91 94 93 89 83 77 76 79 83 83 83 84 86 86 87 88 86 83 83 85 84 82 80 76 72 71 70 67 63 62 64 63
155 144 131 118 106 95 81 80 69 32 358 5 22 26 20 14 12 9 7 4 3 5 9 11 12 14 17 19 18 19 31 44 44 36 32 30 28 34 40 35 30 33 42 50 55 60 64 67 69 70 71 72 73 77 83 88 89 86 82 78 75 75 76 76 76 79 81 82 82 83 87 88 85 82 79 77 75 72 70 65 61 57 54 52 54 59 61
162 159 149 135 125 127 146 147 105 53 16 25 36 32 24 20 17 15 15 14 9 5 6 12 21 27 27 27 24 22 25 36 47 49 45 38 31 31 35 30 27 33 43 50 54 58 61 62 63 66 70 70 70 72 78 83 84 82 80 78 77 76 76 76 76 77 79 79 78 78 80 84 84 81 77 75 70 67 66 63 56 51 48 46 47 49 51
177 180 171 156 163 201 217 187 153 103 42 40 40 30 24 23 22 22 25 24 19 12 8 7 12 26 35 36 34 29 27 28 34 45 52 49 41 38 35 29 30 38 46 49 52 56 59 60 61 65 70 71 69 69 72 75 76 76 76 77 76 77 77 75 75 76 75 74 72 69 67 69 72 74 74 72 68 63 61 60 56 52 49 47 45 46 47
190 197 193 181 189 221 237 217 172 124 57 48 41 28 27 30 27 24 27 28 24 20 17 15 13 16 27 41 49 45 35 30 30 35 46 50 43 38 34 32 36 44 51 53 53 55 57 57 59 65 72 75 73 71 72 74 74 74 74 74 73 74 74 74 73 74 74 74 74 71 67 65 66 65 66 67 66 64 62 61 58 54 51 47 45 46 44
197 203 203 198 204 224 239 235 192 151 156 149 113 46 23 34 37 32 32 33 30 26 25 26 24 18 18 34 62 72 65 53 45 42 46 52 45 35 34 39 45 50 55 56 55 55 56 57 59 63 69 74 75 73 72 72 73 73 73 73 72 71 70 69 68 68 69 71 73 73 71 71 70 67 66 67 68 66 64 63 60 56 52 48 43 41 40
203 205 210 215 218 224 241 246 222 182 208 222 201 176 153 81 57 53 41 36 42 45 40 38 37 32 25 28 46 68 75 74 68 60 59 61 56 40 38 45 51 56 60 61 59 57 56 58 61 64 67 70 72 71 70 70 71 70 69 71 72 73 73 72 71 69 68 69 70 72 74 75 74 72 70 70 70 69 67 64 60 56 52 49 43 40 38
207 204 208 217 218 220 239 252 245 228 244 252 227 159 133 117 88 82 66 46 49 65 64 54 49 47 42 37 37 42 51 64 71 69 66 66 61 46 35 37 46 55 59 59 58 58 59 60 62 65 66 65 65 66 66 67 67 65 62 62 63 65 69 73 75 75 75 74 72 72 73 73 73 72 70 69 71 70 65 60 58 56 53 49 44 38 36
206 203 209 220 223 222 231 242 244 241 243 246 228 146 136 148 170 150 127 98 67 87 85 77 68 65 61 56 49 45 46 56 66 64 60 62 64 56 42 34 39 52 58 56 53 55 57 58 59 62 64 64 63 62 62 63 64 64 63 62 59 57 59 64 67 69 72 73 71 71 72 71 71 72 69 67 70 69 61 56 59 62 60 55 46 38 35
202 200 206 218 225 225 226 232 241 246 243 230 195 158 164 190 209 208 189 146 82 91 89 83 81 83 81 76 69 61 58 64 72 71 63 60 62 60 49 42 42 53 63 60 53 51 52 53 55 57 59 60 62 64 64 65 67 67 67 67 66 63 63 64 66 67 67 67 68 71 72 70 69 68 66 65 69 69 58 51 54 56 56 55 50 44 40
204 203 210 217 220 220 221 223 230 237 236 220 182 163 185 221 231 208 144 111 104 112 93 82 79 83 82 79 79 78 75 75 79 80 75 68 66 64 59 52 50 55 65 67 61 55 51 50 53 58 60 61 62 66 67 68 68 67 66 68 69 68 65 64 64 64 64 65 68 72 72 69 67 66 64 64 68 66 53 43 45 48 50 51 49 45 44
205 208 215 219 218 219 224 233 242 249 248 231 189 167 192 233 245 194 131 160 239 210 124 105 94 89 86 81 78 80 83 83 82 81 79 75 71 66 62 60 57 57 60 65 66 64 59 55 54 58 64 67 67 67 68 68 69 68 67 64 65 67 67 65 61 59 60 62 64 67 68 65 61 60 62 65 67 63 54 48 48 50 52 52 49 45 44
215 212 208 211 218 223 225 231 246 259 263 249 203 174 201 238 242 192 157 188 251 254 141 125 110 94 95 98 93 85 84 88 87 83 80 78 75 66 60 59 60 59 59 62 64 66 65 63 60 60 64 68 69 69 70 69 68 69 69 65 63 66 72 74 69 63 59 58 58 60 63 61 57 53 55 58 57 53 53 55 55 53 52 52 51 49 47